This is the latest recevied weather packets stored in our database for station/object F6DEV-13. If no packets are shown the sender has not sent any weather packets the latest 10 day(s).
| Time | Temp. | Humidity | Pressure | Rain* | Wind** | Luminosity | Snow |
|---|---|---|---|---|---|---|---|
| 1777815877 | 19.44° C | 71% | 1010 hPa | 0 mm | - | - | - |
| 1777815844 | 19.44° C | 71% | 1010 hPa | 0 mm | - | - | - |
| 1777815544 | 19.44° C | 69% | 1010 hPa | 0 mm | - | - | - |
| 1777815279 | 19.44° C | 68% | 1010 hPa | 0 mm | - | - | - |
| 1777815244 | 19.44° C | 68% | 1010 hPa | 0 mm | - | - | - |
| 1777814944 | 19.44° C | 65% | 1010 hPa | 0 mm | - | - | - |
| 1777814644 | 19.44° C | 65% | 1010 hPa | 0 mm | - | - | - |
| 1777814347 | 19.44° C | 62% | 1010 hPa | 0 mm | - | - | - |
| 1777814314 | 19.44° C | 62% | 1010 hPa | 0 mm | - | - | - |
| 1777814014 | 20° C | 60% | 1010 hPa | 0 mm | - | - | - |
| 1777813684 | 20° C | 59% | 1010 hPa | 0 mm | - | - | - |
| 1777813384 | 20.56° C | 60% | 1010 hPa | 0 mm | - | - | - |
| 1777813084 | 20.56° C | 56% | 1010 hPa | 0 mm | - | - | - |
| 1777812842 | 21.11° C | 59% | 1010 hPa | 0 mm | - | - | - |
| 1777812784 | 21.11° C | 59% | 1010 hPa | 0 mm | - | - | - |
| 1777812484 | 21.11° C | 57% | 1010 hPa | 0 mm | - | - | - |
| 1777812154 | 20.56° C | 57% | 1010 hPa | 0 mm | - | - | - |
| 1777811854 | 20.56° C | 56% | 1011 hPa | 0 mm | - | - | - |
| 1777811553 | 21.11° C | 57% | 1011 hPa | 0 mm | - | - | - |
| 1777811223 | 21.67° C | 55% | 1011 hPa | 0 mm | - | - | - |
| 1777810923 | 21.11° C | 56% | 1011 hPa | 0 mm | - | - | - |
| 1777810623 | 20.56° C | 56% | 1011 hPa | 0 mm | - | - | - |
| 1777810328 | 20.56° C | 54% | 1011 hPa | 0 mm | - | - | - |
| 1777810293 | 20.56° C | 54% | 1011 hPa | 0 mm | - | - | - |
| 1777810141 | 21.11° C | 53% | 1011 hPa | 0 mm | - | - | - |
* Rain latest hour (hover to see other rain measurements)
** Current wind speed in m/s (hover to see current wind gust speed)